This is the latest recevied weather packets stored in our database for station/object YN8O-13. If no packets are shown the sender has not sent any weather packets the latest 10 day(s).
| Time | Temp. | Humidity | Pressure | Rain* | Wind** | Luminosity | Snow |
|---|---|---|---|---|---|---|---|
| 1778267143 | 32.78° C | 25% | 1009 hPa | 0 mm | - | - | - |
| 1778266542 | 33.33° C | 25% | 1009 hPa | 0 mm | - | - | - |
| 1778265942 | 32.78° C | 26% | 1010 hPa | 0 mm | - | - | - |
| 1778265341 | 32.78° C | 26% | 1010 hPa | 0 mm | - | - | - |
| 1778264741 | 31.11° C | 29% | 1011 hPa | 0 mm | - | - | - |
| 1778264141 | 31.11° C | 29% | 1011 hPa | 0 mm | - | - | - |
| 1778263540 | 31.11° C | 29% | 1011 hPa | 0 mm | - | - | - |
| 1778262940 | 30.56° C | 29% | 1011 hPa | 0 mm | - | - | - |
| 1778262340 | 30.56° C | 32% | 1011 hPa | 0 mm | - | - | - |
| 1778261739 | 30.56° C | 32% | 1011 hPa | 0 mm | - | - | - |
| 1778261139 | 30° C | 39% | 1012 hPa | 0 mm | - | - | - |
| 1778260538 | 29.44° C | 38% | 1012 hPa | 0 mm | - | - | - |
| 1778259939 | 29.44° C | 38% | 1012 hPa | 0 mm | - | - | - |
| 1778259338 | 29.44° C | 37% | 1012 hPa | 0 mm | - | - | - |
| 1778258737 | 29.44° C | 40% | 1012 hPa | 0 mm | - | - | - |
| 1778258137 | 29.44° C | 40% | 1012 hPa | 0 mm | - | - | - |
| 1778257536 | 28.89° C | 47% | 1013 hPa | 0 mm | - | - | - |
| 1778256936 | 28.33° C | 46% | 1013 hPa | 0 mm | - | - | - |
| 1778256336 | 28.33° C | 46% | 1013 hPa | 0 mm | - | - | - |
| 1778255736 | 28.33° C | 45% | 1013 hPa | 0 mm | - | - | - |
| 1778255135 | 28.33° C | 49% | 1013 hPa | 0 mm | - | - | - |
| 1778254535 | 27.22° C | 57% | 1013 hPa | 0 mm | - | - | - |
| 1778253935 | 27.22° C | 57% | 1013 hPa | 0 mm | - | - | - |
| 1778253334 | 26.67° C | 56% | 1013 hPa | 0 mm | - | - | - |
| 1778252734 | 26.67° C | 56% | 1013 hPa | 0 mm | - | - | - |
* Rain latest hour (hover to see other rain measurements)
** Current wind speed in m/s (hover to see current wind gust speed)